Simultaneous Nadir Overpasses (SNOs) Predictions

Prediction of SNOs between AQUA and GOES-15 Satellite Orbit:

Table of predicted SNOs for the next 14.0 days since TLE Epoch: 9/13/2014
Index Date Time (AQUA) AQUA Lat,Lon GOES-15 Lat,Lon Distance(km) Time Diff (sec)
1 09/14/2014 22:35:08 -0.31,-134.84 -0.34,-134.96 14.16 80
2 09/16/2014 22:22:55 0.36,-131.88 -0.33,-135.03 358.23 80
3 09/17/2014 10:44:10 0.73,-137.04 0.32,-135.05 226.02 80
4 09/19/2014 10:31:56 0.09,-134.07 0.31,-135.11 117.73 80
5 09/19/2014 22:53:20 -1.16,-139.27 -0.30,-135.11 471.88 80
6 09/21/2014 10:19:41 -0.52,-131.10 0.32,-135.16 461.39 80
7 09/21/2014 22:41:05 -0.54,-136.30 -0.30,-135.17 128.20 80
8 09/23/2014 22:28:50 0.11,-133.33 -0.30,-135.22 215.25 80
9 09/24/2014 10:50:04 0.95,-138.49 0.28,-135.24 368.75 80
10 09/26/2014 10:37:48 0.32,-135.51 0.28,-135.28 25.84 80




NCC Satellite Simultaneous Nadir Overpasses (SNOs) Prediction Service
